Home   Weather   Ballia   Past weeks

Flag for India Past Weather in Ballia, Uttar Pradesh, India — Yesterday and Last 2 Weeks

77 °F


Feels Like: 78 °F
Forecast: 68 / 87 °F
Wind: No wind

Location: Patna Airport

Current Time: Oct 28, 2016 at 9:38:47 PM

Latest Report: Oct 28, 2016 at 9:00 PM

Visibility: 2 mi

Pressure: 29.86 "Hg

Humidity: 83%

Dew Point: 72 °F

Location of BalliaLocation

Past Weather in Ballia — Graph


Ballia Temperature Yesterday

Maximum temperature yesterday: 91 °F (at 2:30 PM)
Minimum temperature yesterday: 70 °F (at 6:30 AM)
Average temperature yesterday: 82 °F

High & Low Weather Summary for the Past Weeks

High93 °F (Oct 15, 12:30 PM)100% (Oct 14, 5:30 AM)29.98 "Hg (Oct 14, 5:30 AM)
Low70 °F (Oct 20, 5:30 AM)44% (Oct 20, 2:00 PM)29.62 "Hg (Oct 20, 3:00 PM)
Average83 °F71%29.77 "Hg
* Reported Oct 13 8:30 PM — Oct 28 8:30 PM, Ballia, Weather by CustomWeather, © 2016

Note: Actual official high and low records may vary slightly from our data, if they occured in-between our weather recording intervals... More about our weather records


Ballia Weather History for the Previous 24 Hours

Scroll right to see more
Time TempWeatherWind HumidityBarometerVisibility
8:30 PM
Fri, Oct 28
77 °FHaze.No wind83%29.86 "Hg2 mi
8:00 PM77 °FHaze.No wind89%29.83 "Hg2 mi
7:30 PM79 °FHaze.No wind84%29.83 "Hg2 mi
7:00 PM79 °FHaze.No wind84%29.83 "Hg2 mi
6:30 PM79 °FHaze.No wind84%29.80 "Hg2 mi
6:00 PM81 °FHaze.No wind79%29.80 "Hg2 mi
5:30 PM82 °FHaze.No wind70%29.80 "Hg2 mi
5:00 PM84 °FHaze.No wind74%29.77 "Hg3 mi
4:30 PM86 °FHaze.No wind66%29.77 "Hg3 mi
4:00 PM88 °FPartly sunny.3 mph62%29.77 "Hg3 mi
3:30 PM88 °FPartly sunny.No wind62%29.77 "Hg3 mi
3:00 PM86 °FBroken clouds.2 mph66%29.80 "Hg3 mi
2:00 PM88 °FBroken clouds.5 mph62%29.80 "Hg3 mi
1:30 PM88 °FBroken clouds.6 mph62%29.83 "Hg2 mi
1:00 PM91 °FBroken clouds.5 mph52%29.83 "Hg2 mi
12:30 PM91 °FScattered clouds.5 mph52%29.86 "Hg2 mi
12:00 PM90 °FScattered clouds.3 mph52%29.89 "Hg2 mi
11:30 AM90 °FScattered clouds.5 mph52%29.89 "Hg2 mi
11:00 AM86 °FHaze.3 mph55%29.92 "Hg2 mi
10:30 AM84 °FHaze.5 mph58%29.92 "Hg2 mi
10:00 AM82 °FHaze.3 mph62%29.92 "Hg2 mi
9:30 AM81 °FHaze.3 mph66%29.92 "Hg2 mi
9:00 AM77 °FScattered clouds.2 mph74%29.92 "Hg1 mi
8:30 AM77 °FScattered clouds.3 mph74%29.92 "Hg1 mi
7:30 AM72 °FFog.2 mph94%29.92 "Hg1 mi
6:30 AM73 °FFog.3 mph83%29.86 "Hg1 mi
5:30 AM73 °FPassing clouds.No wind83%29.86 "Hg1 mi
9:30 PM
Thu, Oct 27
77 °FPassing clouds.3 mph83%29.89 "Hg1 mi
9:00 PM77 °FPassing clouds.3 mph83%29.89 "Hg1 mi
Weather by CustomWeather, © 2016

See weather overviewHow to use our weather pages